Index of /20260430/WXO-DD/model_gdps/15km/12/002
Name Last modified Size Description
Parent Directory -
20260430T12Z_MSC_GDPS_AirTemp_AGL-120m_LatLon0.15_PT002H.grib2 2026-04-30 15:43 790K
20260430T12Z_MSC_GDPS_AirTemp_AGL-2m_LatLon0.15_PT002H.grib2 2026-04-30 15:43 1.0M
20260430T12Z_MSC_GDPS_AirTemp_AGL-40m_LatLon0.15_PT002H.grib2 2026-04-30 15:43 808K
20260430T12Z_MSC_GDPS_AirTemp_AGL-80m_LatLon0.15_PT002H.grib2 2026-04-30 15:43 798K
20260430T12Z_MSC_GDPS_Albedo_Sfc_LatLon0.15_PT002H.grib2 2026-04-30 15:43 242K
20260430T12Z_MSC_GDPS_ConvectivePrecip-Accum_Sfc_LatLon0.15_PT002H.grib2 2026-04-30 15:43 1.3M
20260430T12Z_MSC_GDPS_DewPointDepression_AGL-2m_LatLon0.15_PT002H.grib2 2026-04-30 15:43 762K
20260430T12Z_MSC_GDPS_DewPoint_AGL-2m_LatLon0.15_PT002H.grib2 2026-04-30 15:43 607K
20260430T12Z_MSC_GDPS_DownwardLongwaveRadiationFlux-Accum_Sfc_LatLon0.15_PT002H.grib2 2026-04-30 15:43 1.1M
20260430T12Z_MSC_GDPS_DownwardShortwaveRadiationFlux-Accum_Sfc_LatLon0.15_PT002H.grib2 2026-04-30 15:43 642K
20260430T12Z_MSC_GDPS_FreezingRain-Accum1h_Sfc_LatLon0.15_PT002H.grib2 2026-04-30 15:43 41K
20260430T12Z_MSC_GDPS_FreezingRain-Accum_Sfc_LatLon0.15_PT002H.grib2 2026-04-30 15:43 66K
20260430T12Z_MSC_GDPS_IcePellets-Accum1h_Sfc_LatLon0.15_PT002H.grib2 2026-04-30 15:43 10K
20260430T12Z_MSC_GDPS_IcePellets-Accum_Sfc_LatLon0.15_PT002H.grib2 2026-04-30 15:43 12K
20260430T12Z_MSC_GDPS_LatentHeatNetFlux_Sfc_LatLon0.15_PT002H.grib2 2026-04-30 15:43 708K
20260430T12Z_MSC_GDPS_NetLongwaveRadiationFlux-Accum_Sfc_LatLon0.15_PT002H.grib2 2026-04-30 15:43 1.1M
20260430T12Z_MSC_GDPS_NetShortwaveRadiationFlux-Accum_Sfc_LatLon0.15_PT002H.grib2 2026-04-30 15:43 603K
20260430T12Z_MSC_GDPS_O3MixingRatio_Sfc_LatLon0.15_PT002H.grib2 2026-04-30 16:43 2.4M
20260430T12Z_MSC_GDPS_O3_EAtm_LatLon0.15_PT002H.grib2 2026-04-30 16:43 2.5M
20260430T12Z_MSC_GDPS_PlanetaryBoundaryLayerHeight_Sfc_LatLon0.15_PT002H.grib2 2026-04-30 15:43 2.5M
20260430T12Z_MSC_GDPS_Precip-Accum1h_Sfc_LatLon0.15_PT002H.grib2 2026-04-30 15:43 3.1M
20260430T12Z_MSC_GDPS_Precip-Accum_Sfc_LatLon0.15_PT002H.grib2 2026-04-30 15:43 3.1M
20260430T12Z_MSC_GDPS_PrecipRate_Sfc_LatLon0.15_PT002H.grib2 2026-04-30 15:43 2.8M
20260430T12Z_MSC_GDPS_Pressure_MSL_LatLon0.15_PT002H.grib2 2026-04-30 15:43 721K
20260430T12Z_MSC_GDPS_Pressure_Sfc_LatLon0.15_PT002H.grib2 2026-04-30 15:43 1.1M
20260430T12Z_MSC_GDPS_RadiativeTemp_Sfc_LatLon0.15_PT002H.grib2 2026-04-30 15:43 493K
20260430T12Z_MSC_GDPS_Rain-Accum1h_Sfc_LatLon0.15_PT002H.grib2 2026-04-30 15:43 1.6M
20260430T12Z_MSC_GDPS_Rain-Accum_Sfc_LatLon0.15_PT002H.grib2 2026-04-30 15:43 2.1M
20260430T12Z_MSC_GDPS_RelativeHumidity_AGL-2m_LatLon0.15_PT002H.grib2 2026-04-30 15:43 1.1M
20260430T12Z_MSC_GDPS_Runoff-Accum_Sfc_LatLon0.15_PT002H.grib2 2026-04-30 15:43 49K
20260430T12Z_MSC_GDPS_SensibleHeatNetFlux_Sfc_LatLon0.15_PT002H.grib2 2026-04-30 15:43 481K
20260430T12Z_MSC_GDPS_Snow-Accum1h_Sfc_LatLon0.15_PT002H.grib2 2026-04-30 15:43 1.0M
20260430T12Z_MSC_GDPS_Snow-Accum_Sfc_LatLon0.15_PT002H.grib2 2026-04-30 15:43 1.6M
20260430T12Z_MSC_GDPS_SnowDepth_Sfc_LatLon0.15_PT002H.grib2 2026-04-30 15:43 1.7M
20260430T12Z_MSC_GDPS_SoilTemp_DBS-0to10cm_LatLon0.15_PT002H.grib2 2026-04-30 15:43 492K
20260430T12Z_MSC_GDPS_SoilTemp_Sfc_LatLon0.15_PT002H.grib2 2026-04-30 15:43 566K
20260430T12Z_MSC_GDPS_SoilVolumetricWaterContent_DBS-0to10cm_LatLon0.15_PT002H.grib2 2026-04-30 15:43 584K
20260430T12Z_MSC_GDPS_SoilVolumetricWaterContent_DBS-0to1cm_LatLon0.15_PT002H.grib2 2026-04-30 15:43 642K
20260430T12Z_MSC_GDPS_SpecificHumidity_AGL-120m_LatLon0.15_PT002H.grib2 2026-04-30 15:43 1.1M
20260430T12Z_MSC_GDPS_SpecificHumidity_AGL-2m_LatLon0.15_PT002H.grib2 2026-04-30 15:43 1.2M
20260430T12Z_MSC_GDPS_SpecificHumidity_AGL-40m_LatLon0.15_PT002H.grib2 2026-04-30 15:43 1.1M
20260430T12Z_MSC_GDPS_SpecificHumidity_AGL-80m_LatLon0.15_PT002H.grib2 2026-04-30 15:43 1.1M
20260430T12Z_MSC_GDPS_SpecificHumidity_Sfc_LatLon0.15_PT002H.grib2 2026-04-30 15:43 667K
20260430T12Z_MSC_GDPS_TotalCloudCover_Sfc_LatLon0.15_PT002H.grib2 2026-04-30 15:43 826K
20260430T12Z_MSC_GDPS_UVIndex-ClearSky_Sfc_LatLon0.15_PT002H.grib2 2026-04-30 16:43 1.0M
20260430T12Z_MSC_GDPS_UVIndex_Sfc_LatLon0.15_PT002H.grib2 2026-04-30 16:43 1.5M
20260430T12Z_MSC_GDPS_UpwardLongwaveRadiationFlux_NTAtm_LatLon0.15_PT002H.grib2 2026-04-30 15:43 837K
20260430T12Z_MSC_GDPS_WindDir_AGL-10m_LatLon0.15_PT002H.grib2 2026-04-30 15:43 1.3M
20260430T12Z_MSC_GDPS_WindDir_AGL-120m_LatLon0.15_PT002H.grib2 2026-04-30 15:43 1.4M
20260430T12Z_MSC_GDPS_WindDir_AGL-40m_LatLon0.15_PT002H.grib2 2026-04-30 15:43 1.4M
20260430T12Z_MSC_GDPS_WindDir_AGL-80m_LatLon0.15_PT002H.grib2 2026-04-30 15:43 1.4M
20260430T12Z_MSC_GDPS_WindDir_IsbL-0700_LatLon0.15_PT002H.grib2 2026-04-30 15:43 1.6M
20260430T12Z_MSC_GDPS_WindGust-Max_AGL-10m_LatLon0.15_PT002H.grib2 2026-04-30 15:43 2.3M
20260430T12Z_MSC_GDPS_WindGust-Min_AGL-10m_LatLon0.15_PT002H.grib2 2026-04-30 15:43 2.2M
20260430T12Z_MSC_GDPS_WindGust_AGL-10m_LatLon0.15_PT002H.grib2 2026-04-30 15:43 2.2M
20260430T12Z_MSC_GDPS_WindSpeed_AGL-10m_LatLon0.15_PT002H.grib2 2026-04-30 15:43 1.1M
20260430T12Z_MSC_GDPS_WindSpeed_AGL-120m_LatLon0.15_PT002H.grib2 2026-04-30 15:43 1.2M
20260430T12Z_MSC_GDPS_WindSpeed_AGL-40m_LatLon0.15_PT002H.grib2 2026-04-30 15:43 1.2M
20260430T12Z_MSC_GDPS_WindSpeed_AGL-80m_LatLon0.15_PT002H.grib2 2026-04-30 15:43 1.2M
20260430T12Z_MSC_GDPS_WindSpeed_IsbL-0700_LatLon0.15_PT002H.grib2 2026-04-30 15:43 1.5M
20260430T12Z_MSC_GDPS_WindU_AGL-10m_LatLon0.15_PT002H.grib2 2026-04-30 15:43 1.6M
20260430T12Z_MSC_GDPS_WindU_AGL-120m_LatLon0.15_PT002H.grib2 2026-04-30 15:43 1.0M
20260430T12Z_MSC_GDPS_WindU_AGL-40m_LatLon0.15_PT002H.grib2 2026-04-30 15:43 971K
20260430T12Z_MSC_GDPS_WindU_AGL-80m_LatLon0.15_PT002H.grib2 2026-04-30 15:43 1.0M
20260430T12Z_MSC_GDPS_WindU_IsbL-0700_LatLon0.15_PT002H.grib2 2026-04-30 15:43 1.2M
20260430T12Z_MSC_GDPS_WindV_AGL-10m_LatLon0.15_PT002H.grib2 2026-04-30 15:43 1.3M
20260430T12Z_MSC_GDPS_WindV_AGL-120m_LatLon0.15_PT002H.grib2 2026-04-30 15:43 971K
20260430T12Z_MSC_GDPS_WindV_AGL-40m_LatLon0.15_PT002H.grib2 2026-04-30 15:43 966K
20260430T12Z_MSC_GDPS_WindV_AGL-80m_LatLon0.15_PT002H.grib2 2026-04-30 15:43 971K
20260430T12Z_MSC_GDPS_WindV_IsbL-0700_LatLon0.15_PT002H.grib2 2026-04-30 15:43 1.2M